Location: Feydey
(46.3431°N, 7.0106°E)
Time: 20:49:15
(UTC+00:00)

Cosmos 1328 - Pass Details

Date: 23 October 2021
Orbit: 529 x 552 km, 82.5° (Epoch: 03 December)

Event Time Altitude Azimuth Distance (km) Brightness Sun altitude
Rises 17:25:39 0° 353° (N) 2,736 7.4 -10.0°
Reaches altitude 10° 17:27:50 10° 356° (N) 1,839 6.5 -10.4°
Maximum altitude 17:31:52 69° 79° (E) 596 3.7 -11.1°
Drops below altitude 10° 17:35:53 10° 164° (SSE) 1,826 6.4 -11.8°
Sets 17:38:02 0° 167° (SSE) 2,714 7.3 -12.2°
